www.pogodaiklimat.ru

Погода и климат >> Архив погоды >> Аргентина >> San Ramon de la Nueva Oran


ПОГОДА в San Ramon de la Nueva Oran

  • Прогноз погоды в San Ramon de la Nueva Oran
  • Монитор погоды в San Ramon de la Nueva Oran
  • Климат города

АРХИВ ПОГОДЫ в San Ramon de la Nueva Oran

Время (UTC), дата Ветер
(напр.,м/с)
 
Видим.   Явления Облачность Т
(С)
Тd
(С)
f
(%)
Тe
(С)
Тes
(С)
Комфортность P
(гПа)
Po
(гПа)
Тmin
(С)
Tmax
(С)
R
(мм)
R24
(мм)
S
(см)
09 18.06 В 1 400 м туман ясно +4.3 +4.1 99 +3 +3 1025.1 982.2
12 18.06 СВ 1 2000 м в посл. час туман 1/0
[Cs]
+5.2 +3.3 88 +4 +5 1027.1 983.7 +2.8 +9.6
15 18.06 С 4 15 км 3/0
[Ci fib]
+15.2 +8.3 63 +14 +20 1025.4 982.6
18 18.06 штиль 0 15 км 3/0
[Ci fib]
+22.2 +9.3 44 +24 +34 комфорт 1020.2 978.1
21 18.06 Ю 1 5000 м дым 3/0
[Ci fib]
+20.6 +10.4 52 +23 +24 комфорт 1019.9 977.4
00 19.06 ЮВ 1 10 км ясно +12.0 +9.7 86 +12 +12 1021.5 978.5 +5.2 +22.8
03 19.06 штиль 0 10 км ясно +9.6 +8.4 92 +9 +9 1020.7 978.2
06 19.06 штиль 0 6000 м дым ясно +8.6 +7.3 92 +8 +8 1018.9 977.0
09 19.06 штиль 0 6000 м дымка ясно +8.5 +7.5 93 +8 +8 1016.8 974.9
12 19.06 СЗ 3 8000 м дымка 1/0
[Cs]
+8.4 +6.9 90 +6 +7 1017.9 975.3 +5.7 +12.0
15 19.06 С 3 10 км 1/0
[Cs]
+17.9 +10.3 61 +18 +26 1016.9 974.8
18 19.06 С 4 10 км 1/0
[Ac trans]
+23.5 +10.7 44 +25 +30 комфорт 1012.9 971.3
21 19.06 СЗ 3 10 км 1/0
[Ac trans]
+23.5 +11.8 48 +25 +25 комфорт 1011.5 970.0
00 20.06 штиль 0 10 км 1/0
[Ac trans]
+14.2 +10.2 77 +14 +14 1013.5 971.2 +8.4 +25.0
03 20.06 штиль 0 10 км ясно +13.8 +12.7 93 +13 +13 1013.7 972.1
06 20.06 ЮВ 1 8000 м дымка ясно +11.6 +11.2 97 +11 +11 1013.2 971.8
09 20.06 штиль 0 8000 м дымка ясно +11.0 +10.2 95 +10 +10 1013.5 972.1
12 20.06 СЗ 3 10 км ясно +11.3 +10.1 92 +10 +11 1016.3 974.1 +9.2 +14.2
15 20.06 С 3 10 км ясно +21.5 +12.0 55 +24 +32 комфорт 1015.1 973.7
18 20.06 СВ 1 10 км ясно +26.5 +13.8 46 +29 +38 жарко 1012.1 971.0
21 20.06 штиль 0 10 км ясно +25.7 +14.2 49 +28 +28 жарко 1011.0 969.8
00 21.06 З 3 10 км ясно +17.8 +14.4 80 +18 +18 1011.2 969.4 +11.3 +27.1
03 21.06 штиль 0 10 км ясно +14.4 +13.3 93 +14 +14 1009.6 968.4
06 21.06 штиль 0 10 км ясно +12.6 +11.9 95 +12 +12 1009.0 968.1
09 21.06 штиль 0 4000 м дымка ясно +11.2 +10.8 97 +10 +10 1009.4 968.2
12 21.06 СЗ 3 6000 м дымка 3/0
[Cs]
+12.8 +12.1 96 +11 +12 1012.4 970.8 +11.2 +17.8
15 21.06 ЮВ 3 10 км 3/0
[Cs]
+21.1 +13.8 63 +24 +31 комфорт 1015.4 974.0
18 21.06 штиль 0 10 км 4/1 600 м
[Cu hum Cs]
+27.1 +12.7 41 +29 +38 жарко 1013.7 972.6
21 21.06 С 3 10 км 8/4 600 м
[Sc Ac und Cs]
+25.4 +13.9 49 +28 +28 жарко 1014.5 973.2
00 22.06 штиль 0 10 км 9/9 600 м
[Sc]
+22.2 +13.5 58 +25 +25 комфорт 1017.3 975.8 +12.8 +28.5
03 22.06 штиль 0 10 км 9/9 600 м
[Sc]
+19.6 +14.9 74 +21 +21 комфорт 1017.3 976.2
06 22.06 штиль 0 10 км 9/9 600 м
[Sc]
+18.2 +13.7 75 +18 +18 1016.0 975.2
09 22.06 штиль 0 10 км 9/3 600 м
[Sc Ac und]
+17.0 +12.0 72 +17 +17 1014.7 973.8
12 22.06 ЮВ 1 10 км 6/3 600 м
[Sc Ac und]
+16.4 +12.8 79 +17 +18 1014.4 973.2 +15.2 +22.2
15 22.06 С 4 10 км 1/1 600 м
[Cu hum]
+22.1 +11.9 52 +24 +30 комфорт 1012.1 971.2
18 22.06 С 3 10 км 3/1 600 м
[Cu hum Ac trans]
+25.4 +13.2 47 +27 +33 жарко 1007.1 966.6
21 22.06 С 4 10 км 4/4 600 м
[Sc]
+23.4 +12.9 52 +26 +27 жарко 1006.4 965.7
00 23.06 СЗ 3 10 км 10/10 600 м
[Sc]
+20.4 +14.9 71 +23 +23 комфорт 1007.2 966.2 +16.4 +27.2
03 23.06 СЗ 1 10 км 8/8 600 м
[Sc]
+18.7 +15.5 82 +21 +21 комфорт 1006.0 965.3
06 23.06 СЗ 1 10 км 4/0
[Cs]
+15.6 +14.6 94 +16 +16 1004.7 964.1
09 23.06 штиль 0 3000 м дымка ясно +14.2 +13.8 97 +14 +14 1004.1 963.4
12 23.06 штиль 0 8000 м в посл. час туман 6/4 300 м
[St Cs]
+14.4 +13.3 93 +14 +15 1006.5 965.4 +12.5 +20.4
15 23.06 штиль 0 10 км 1/0
[Ci fib]
+22.2 +15.2 65 +26 +38 душно 1007.0 966.2
18 23.06 С 7 10 км 1/1 600 м
[Cu hum]
+26.6 +14.0 46 +29 +31 жарко 1005.9 965.3
21 23.06 В 7 6000 м мгла 9/9 600 м
[Sc]
+23.6 +13.6 53 +26 +26 жарко 1010.1 969.0
00 24.06 ЮВ 4 8000 м мгла 10/10 600 м
[Sc]
+21.1 +13.4 61 +23 +23 комфорт 1015.3 973.8 +14.4 +26.9
03 24.06 ЮВ 3 10 км 10/10 600 м
[Sc]
+18.8 +11.6 63 +20 +20 1018.6 977.4
06 24.06 Ю 7 10 км 10/10 600 м
[Sc]
+16.9 +12.4 75 +16 +16 1019.2 978.2
09 24.06 ЮВ 4 10 км в посл. час морось 10/10 210 м
[Frnb]
+14.5 +11.4 82 +13 +13 1021.1 979.6
12 24.06 штиль 0 10 км {морось} 10/10 600 м
[Sc]
+15.1 +8.7 66 +15 +15 1023.1 981.4 +14.4 +21.1 0.0
15 24.06 З 4 10 км 10/10 600 м
[Sc]
+15.6 +7.7 59 +15 +15 1021.9 980.1
18 24.06 З 1 10 км 10/10 600 м
[Sc]
+16.4 +5.8 49 +17 +17 1016.1 974.5
21 24.06 С 3 10 км 10/10 600 м
[Sc]
+15.2 +5.2 51 +15 +15 1014.5 972.6
00 25.06 СЗ 1 10 км 10/10 600 м
[Sc]
+14.0 +8.7 70 +14 +14 1015.0 973.0 +14.0 +16.5
03 25.06 С 3 10 км 10/10 600 м
[Sc]
+13.4 +8.7 73 +12 +12 1015.6 973.7
06 25.06 С 3 10 км 10/10 600 м
[Sc]
+12.8 +9.3 79 +12 +12 1015.7 973.8

 

Местоположение метеостанции San Ramon de la Nueva Oran (Аргентина): широта -23.15 долгота -64.31 высота над уровнем моря 357 м.

В архиве по умолчанию представлена погода в San Ramon de la Nueva Oran за последнюю неделю. Архивные данные за месяц целиком и за предыдущие месяцы, начиная с января 2011 года, Вы можете получить, выбрав интересующий диапазон дат из раскрывающегося списка и нажав кнопку "Ввод!".


*Определитесь, кто Вы:
робот инопланетянин человек

Внимание! Время в таблицах - всемирное. Для получения местного времени необходимо прибавить поправку, которая в San Ramon de la Nueva Oran равна -3 ч.

Смотрите также архив погоды в соседних городах и на ближайших метеорологических станциях:

Погода в Bermejo (Боливия) (43 км)
Погода в Tartagal (Аргентина) (79 км)
Погода в Yacuiba (Боливия) (150 км)
Погода в San Salvador de Jujuy (Аргентина) (158 км)
Погода в La Quiaca (Аргентина) (177 км)
Погода в Tarija (Боливия) (182 км)
Погода в Salta (Аргентина) (223 км)
Погода в Villamontes (Боливия) (229 км)
Погода в Prats-Gil (Парагвай) (292 км)
Погода в Camiri (Боливия) (360 км)

Пояснения к столбцам:

Ветер - указаны скорость ветра в м/с - средняя за 10 мин, порывы в срок и между сроками (в фигурных скобках) и направление, откуда дует ветер: С - северный, СВ - северо-восточный, В - восточный, ЮВ - юго-восточный, Ю - южный, ЮЗ - юго-западный, З - западный, СЗ - северо-западный.
Видимость - горизонтальная дальность видимости в метрах или километрах. При видимости от 1 до 10 км при отсутствии осадков обычно наблюдается дымка, при ухудшении видимости до 1 км и менее - туман. В сухую погоду видимость может ухудшаться дымом, пылью или мглою.
Явления - указаны атмосферные явления, наблюдавшиеся в срок или в последний час перед сроком; фигурными скобками обозначены явления, наблюдавшиеся между сроками (за 1-3 часа до срока); квадратными скобками обозначены град или гололедные отложения с указанием их диаметра в мм.
Облачность - указаны через наклонную черту общая и нижняя облачность в баллах и высота нижней границы облаков в метрах; квадратными скобками обозначены формы облаков: Ci - перистые, Cs - перисто-слоистые, Cc - перисто-кучевые, Ac - высококучевые, As - высокослоистые, Sc - слоисто-кучевые, Ns - слоисто-дождевые, Cu - кучевые, Cb - кучево-дождевые. Подробнее классификацию облаков см. в Атласе облаков (PDF).
T - Температура воздуха - температура, измеренная на высоте 2 м над землей.
Td - Температура точки росы - температура, при понижении до которой содержащийся в воздухе водяной пар достигнет насыщения.
f - Относительная влажность воздуха - влажноcть воздуха, измеренная на высоте 2 м над землей.
Te - Эффективная температура - температура, которую ощущает одетый по сезону человек в тени. Характеристика душности погоды. При расчете учитывается влияние влажности воздуха и скорости ветра на теплоощущения человека.
Tes - Эффективная температура на солнце - температура, которую ощущает человек, с поправкой на солнечный нагрев. Характеристика знойности погоды. Зависит от высоты солнца над горизонтом, облачности и скорости ветра. Ночью, в пасмурную погоду, а также при ветре 12 м/с и более поправка равна нулю.
P - Атмосферное давление - приведенное к уровню моря атмосферное давление.
Po - Атмосферное давление - измеренное на уровне метеостанции атмосферное давление.
Tmin - Минимальная температура - минимум температуры воздуха на высоте 2 м над землей.
Tmax - Максимальная температура - максимум температуры воздуха на высоте 2 м над землей.
R - Количество осадков - Количество выпавших осадков за период времени, мм. При наведении курсора мыши на число - период времени, за который выпало указанное количество осадков.
R24 - Количество осадков - Количество выпавших осадков за 24 часа, мм.
S - Снежный покров - Высота снежного покрова, см. При наведении курсора мыши на число - состояние снежного покрова и степень покрытия местности в баллах.